Location: Alumbaugh
(37.5976°N, 83.9299°W)
Time: 21:31:08
(UTC+00:00)

Oscar 11 - Visible Passes

Search period start: 13 September 2024 00:00
Search period end: 23 September 2024 00:00
Orbit: 600 x 612 km, 97.7° (Epoch: 12 September)

Date Brightness Start Highest point End Pass type
(mag) Time Alt. Az. Time Alt. Az. Time Alt. Az.
13 Sep 7.0 09:35:12 10° N 09:39:22 59° WNW 09:40:20 46° SW visible
14 Sep 9.7 08:13:59 10° ENE 08:16:17 14° E 08:16:30 14° E visible
14 Sep 7.4 09:48:19 10° N 09:52:18 41° WNW 09:53:22 34° WSW visible
15 Sep 9.3 08:26:13 10° NE 08:29:21 20° E 08:29:30 20° E visible
15 Sep 7.9 10:01:32 10° N 10:05:11 29° WNW 10:06:23 25° W visible
16 Sep 8.8 08:38:44 10° NE 08:42:23 28° E 08:42:30 28° E visible
16 Sep 8.3 10:14:50 10° NNW 10:18:03 21° WNW 10:19:22 19° W visible
17 Sep 8.1 08:51:24 10° NNE 08:55:23 40° E 08:55:29 40° ESE visible
17 Sep 8.7 10:28:20 10° NNW 10:30:52 16° WNW 10:32:21 13° W visible
18 Sep 7.4 09:04:10 10° NNE 09:08:20 58° E 09:08:27 57° ESE visible
18 Sep 9.0 10:42:19 10° NW 10:43:39 11° WNW 10:44:58 10° W visible
19 Sep 6.9 09:17:01 10° NNE 09:21:15 84° ESE 09:21:24 81° SSE visible
20 Sep 6.8 09:29:56 10° N 09:34:08 68° WNW 09:34:20 67° W visible
21 Sep 10.0 08:09:05 10° ENE 08:10:23 12° E 08:10:23 12° E visible
21 Sep 7.2 09:42:55 10° N 09:46:59 47° WNW 09:47:15 46° W visible
22 Sep 9.6 08:21:01 10° NE 08:23:17 17° E 08:23:17 17° E visible
22 Sep 7.7 09:55:59 10° N 09:59:47 33° WNW 10:00:08 33° W visible
